QPF
0.00 0.00 0.00 0.00 0.00 0.00 0.00 0.00 0.00 0.00 0.00 0.00 0.00 0.00 0.00 0.00 0.00 0.00 0.00 0.00 0.00 0.00 0.00 0.00 0.00 0.00 0.00 0.00 0.00 0.00 0.00 0.00
0.00 0.00 0.00 0.00 0.00 0.00 0.00 0.00 0.00 0.00 0.00 0.00 0.00 0.00 0.00 0.00 0.00 0.00 0.00 0.00 0.00 0.00 0.00 0.00 0.00 0.00 0.00 0.00 0.00 0.00 0.00 0.00
0.00 0.00 0.00 0.00 0.00 0.00 0.00 0.00 0.00 0.00 0.00 0.00 0.00 0.00 0.00 0.00 0.00 0.00 0.00 0.00 0.00 0.00 0.00 0.00 0.00 0.00 0.00 0.00 0.00 0.00 0.00 0.00
0.00 0.00 0.00 0.00 0.00 0.00 0.00 0.00 0.00 0.00 0.00 0.00 0.00 0.00 0.00 0.00 0.00 0.00 0.00 0.00 0.00 0.00 0.00 0.00 0.00 0.00 0.00 0.00 0.00 0.00 0.00 0.00
0.00 0.00 0.00 0.00 0.00 0.00 0.00 0.00 0.00 0.00 0.00 0.00 0.00 0.00 0.00 0.00 0.00 0.00 0.00 0.00 0.00 0.00 0.00 0.00 0.00 0.00 0.00 0.00 0.00 0.00 0.00 0.00
0.00 0.00 0.00 0.00 0.00 0.00 0.00 0.00 0.00 0.00 0.00 0.00 0.00 0.00 0.00 0.00 0.00 0.00 0.00 0.00 0.00 0.00 0.00 0.00 0.00 0.00 0.00 0.00 0.00 0.00 0.00 0.00
0.00 0.00 0.00 0.00 0.00 0.00 0.00 0.00 0.00 0.00 0.00 0.00 0.00 0.00 0.00 0.00 0.00 0.00 0.00 0.00 0.00 0.00 0.00 0.00 0.00 0.00 0.00 0.00 0.00 0.00 0.00 0.00
0.00 0.00 0.00 0.00 0.00 0.00 0.00 0.00 0.00 0.00 0.00 0.00 0.00 0.00 0.00 0.00 0.00 0.00 0.00 0.00 0.00 0.00 0.00 0.00 0.00 0.00 0.00 0.00 0.00 0.00 0.00 0.00
0.00 0.00 0.00 0.00 0.00 0.00 0.00 0.00 0.00 0.00 0.00 0.00 0.00 0.00 0.00 0.00 0.00 0.00 0.00 0.00 0.00 0.00 0.00 0.00 0.00 0.00 0.00 0.00 0.00 0.00 0.00 0.00
0.00 0.00 0.00 0.00 0.00 0.00 0.00 0.00 0.00 0.00 0.00 0.00 0.00 0.00 0.00 0.00 0.00 0.00 0.00 0.00 0.00 0.00 0.00 0.00 0.00 0.00 0.00 0.00 0.00 0.00 0.00 0.00
0.00 0.00 0.00 0.00 0.00 0.00 0.00 0.00 0.00 0.00 0.00 0.00 0.00 0.00 0.00 0.00 0.00 0.00 0.00 0.00 0.00 0.00 0.00 0.00 0.00 0.00 0.00 0.00 0.00 0.00 0.00 0.00
0.00 0.00 0.00 0.00 0.00 0.00 0.00 0.00 0.00 0.00 0.00 0.00 0.00 0.00 0.00 0.00 0.00 0.00 0.00 0.00 0.00 0.00 0.00 0.00 0.00 0.00 0.00 0.00 0.00 0.00 0.00 0.00
0.00 0.00 0.00 0.00 0.00 0.00 0.00 0.00 0.00 0.00 0.00 0.00 0.00 0.00 0.00 0.00 0.00 0.00 0.00 0.00 0.00 0.00 0.00 0.00 0.00 0.00 0.00 0.00 0.00 0.00 0.00 0.00
0.00 0.00 0.00 0.00 0.00 0.00 0.00 0.00 0.00 0.00 0.00 0.00 0.00 0.00 0.00 0.00 0.00 0.00 0.00 0.00 0.00 0.00 0.00 0.00 0.00 0.00 0.00 0.00 0.00 0.00 0.00 0.00
0.00 0.00 0.00 0.00 0.00 0.00 0.00 0.00 0.00 0.00 0.00 0.00 0.00 0.00 0.00 0.00 0.00 0.00 0.00 0.00 0.00 0.00 0.00 0.00 0.00 0.00 0.00 0.00 0.00 0.00 0.00 0.00
0.00 0.00 0.00 0.00 0.00 0.00 0.00 0.00 0.00 0.00 0.00 0.00 0.00 0.00 0.00 0.00 0.00 0.00 0.00 0.00 0.00 0.00 0.00 0.00 0.00 0.00 0.00 0.00 0.00 0.00 0.00 0.00
0.00 0.00 0.00 0.00 0.00 0.00 0.00 0.00 0.00 0.00 0.00 0.00 0.00 0.00 0.00 0.00 0.00 0.00 0.00 0.00 0.00 0.00 0.00 0.00 0.00 0.00 0.00 0.00 0.00 0.00 0.00 0.00
0.01 0.00 0.00 0.00 0.00 0.00 0.00 0.00 0.00 0.00 0.00 0.00 0.00 0.00 0.00 0.00 0.00 0.00 0.00 0.00 0.00 0.00 0.00 0.00 0.00 0.00 0.00 0.00 0.00 0.00 0.01 0.01
0.02 0.00 0.00 0.00 0.00 0.00 0.00 0.00 0.00 0.00 0.00 0.00 0.00 0.00 0.00 0.00 0.00 0.00 0.00 0.00 0.00 0.00 0.00 0.00 0.00 0.00 0.00 0.00 0.00 0.00 0.01 0.01
MSLP
1010.55 1011.74 1012.79 1013.31 1013.79 1014.21 1014.46 1014.81 1014.98 1015.33 1015.35 1015.44 1015.34 1015.51 1015.62 1015.68 1015.55 1015.56 1016.01 1016.03 1016.02 1015.80 1015.66 1015.99 1016.12 1015.99 1016.01 1016.08 1016.01 1015.68 1015.51 1015.28
1009.85 1011.26 1012.45 1013.13 1013.44 1014.13 1014.37 1014.51 1014.78 1015.17 1015.16 1015.21 1015.26 1015.26 1015.39 1015.39 1015.30 1015.69 1015.92 1015.60 1015.85 1015.89 1015.60 1015.63 1015.75 1015.78 1016.01 1016.20 1016.07 1015.91 1015.47 1015.23
1009.85 1010.80 1011.82 1012.57 1013.04 1013.39 1013.62 1013.86 1014.20 1014.78 1014.58 1014.59 1014.54 1014.55 1014.81 1015.05 1015.07 1015.55 1015.92 1015.78 1015.77 1015.68 1015.66 1015.75 1015.79 1015.85 1015.79 1015.85 1016.08 1015.94 1015.52 1015.17
1010.19 1010.95 1011.49 1012.14 1012.66 1012.98 1013.27 1013.41 1013.66 1014.10 1014.29 1014.19 1014.53 1014.81 1014.84 1014.71 1014.83 1015.06 1015.09 1015.54 1015.49 1015.44 1015.64 1015.73 1015.85 1015.99 1015.83 1015.64 1015.69 1015.61 1015.16 1014.98
1010.40 1010.91 1011.10 1011.66 1012.15 1012.67 1012.94 1013.08 1013.24 1013.47 1013.91 1014.05 1014.04 1014.05 1013.78 1013.58 1013.43 1013.81 1014.17 1014.54 1015.09 1015.38 1015.41 1015.53 1015.68 1015.86 1015.85 1015.71 1015.38 1015.22 1015.15 1014.69
1010.22 1010.47 1010.66 1010.93 1011.39 1012.07 1012.38 1012.63 1012.77 1012.83 1013.14 1013.75 1013.69 1013.69 1013.77 1013.69 1013.89 1014.11 1014.67 1014.83 1014.98 1015.20 1015.28 1015.32 1015.44 1015.50 1015.53 1015.55 1015.51 1015.27 1014.95 1014.47
1010.16 1010.32 1010.46 1010.87 1011.22 1011.75 1012.18 1012.30 1012.33 1012.49 1012.72 1012.99 1013.42 1013.47 1013.47 1013.55 1013.75 1014.18 1014.59 1014.75 1014.82 1014.84 1015.08 1015.31 1015.54 1015.62 1015.42 1015.44 1015.30 1015.13 1014.85 1014.44
1010.25 1010.26 1010.37 1010.36 1010.91 1011.26 1011.74 1011.92 1011.78 1011.79 1012.01 1012.48 1012.96 1013.39 1013.68 1013.74 1013.91 1014.20 1014.66 1015.10 1015.22 1015.31 1015.42 1015.66 1015.73 1015.66 1015.51 1015.26 1015.27 1015.12 1014.70 1014.23
1010.33 1010.31 1010.40 1010.39 1010.44 1010.59 1010.79 1010.78 1010.90 1011.14 1011.31 1011.84 1012.49 1013.02 1013.51 1013.82 1014.08 1014.55 1015.03 1015.15 1015.34 1015.54 1015.71 1015.73 1015.69 1015.52 1015.31 1015.08 1014.83 1014.56 1014.00 1013.51
1009.85 1010.00 1010.15 1010.08 1010.12 1010.23 1010.10 1009.97 1010.09 1010.34 1010.89 1011.23 1012.10 1012.87 1013.56 1013.72 1013.96 1014.77 1015.01 1015.03 1015.17 1015.27 1015.44 1015.46 1015.33 1015.17 1014.96 1014.73 1014.47 1014.07 1013.62 1013.19
1009.50 1009.67 1009.82 1010.00 1010.03 1009.75 1009.61 1009.83 1009.64 1010.06 1010.51 1011.46 1012.66 1013.35 1013.77 1014.08 1014.37 1014.68 1014.99 1015.10 1015.18 1015.12 1015.09 1015.04 1014.87 1014.69 1014.46 1014.27 1013.96 1013.62 1013.27 1012.84
1009.43 1009.61 1009.68 1009.61 1009.40 1009.51 1009.65 1009.77 1009.87 1010.29 1010.82 1012.12 1013.09 1013.55 1013.90 1014.14 1014.38 1014.70 1014.86 1014.88 1014.95 1014.85 1014.76 1014.60 1014.39 1014.15 1013.95 1013.66 1013.34 1013.08 1012.72 1012.23
1009.38 1009.67 1009.77 1009.47 1009.08 1009.20 1009.43 1009.81 1010.43 1010.66 1011.59 1012.65 1013.36 1013.77 1013.81 1014.19 1014.40 1014.51 1014.64 1014.66 1014.66 1014.55 1014.28 1014.05 1013.81 1013.53 1013.27 1013.05 1012.66 1012.33 1011.88 1011.39
1009.51 1009.56 1009.66 1009.53 1009.26 1009.12 1009.55 1009.88 1010.49 1011.04 1011.93 1012.72 1013.28 1013.50 1013.77 1014.06 1014.21 1014.30 1014.37 1014.31 1014.09 1013.94 1013.67 1013.41 1013.11 1012.80 1012.51 1012.30 1012.01 1011.63 1011.34 1010.97
1009.52 1009.61 1009.70 1010.12 1009.39 1009.05 1009.60 1010.15 1010.84 1011.34 1011.90 1012.38 1012.83 1013.15 1013.48 1013.65 1013.97 1014.13 1014.07 1013.86 1013.59 1013.35 1013.10 1012.77 1012.46 1012.14 1011.85 1011.58 1011.26 1010.90 1010.60 1010.33
1009.65 1010.17 1010.55 1010.33 1009.44 1009.26 1009.61 1010.33 1011.08 1011.59 1011.90 1012.26 1012.80 1012.97 1013.18 1013.54 1013.69 1013.70 1013.61 1013.42 1013.15 1012.85 1012.44 1012.03 1011.72 1011.44 1011.08 1010.76 1010.65 1010.50 1010.30 1010.08
1010.10 1010.79 1010.72 1010.09 1009.73 1009.44 1009.78 1010.51 1011.02 1011.70 1011.83 1012.17 1012.38 1012.57 1013.13 1013.30 1013.39 1013.32 1013.07 1012.87 1012.55 1012.19 1011.76 1011.36 1011.00 1010.71 1010.48 1010.62 1010.71 1010.34 1010.20 1009.94
1010.95 1011.18 1010.74 1010.08 1010.18 1009.84 1010.18 1010.74 1011.36 1012.05 1011.85 1012.10 1012.27 1012.73 1013.01 1013.18 1013.06 1012.76 1012.51 1012.20 1011.97 1011.59 1011.15 1010.83 1010.47 1010.30 1010.14 1010.11 1010.10 1009.90 1009.56 1009.18
1011.62 1011.01 1010.42 1010.58 1010.80 1010.52 1010.74 1011.67 1011.72 1011.82 1011.84 1011.90 1012.27 1012.59 1012.81 1012.77 1012.58 1012.30 1011.93 1011.73 1011.44 1011.05 1010.70 1010.51 1010.24 1009.93 1009.80 1009.65 1009.43 1009.07 1008.57 1007.99
Thickness
5668 5657 5647 5641 5635 5630 5625 5620 5616 5609 5605 5599 5596 5589 5582 5578 5574 5571 5565 5561 5558 5556 5556 5553 5548 5547 5545 5544 5543 5545 5546 5547
5671 5658 5647 5638 5633 5624 5618 5614 5608 5601 5596 5590 5585 5580 5575 5570 5566 5560 5553 5552 5548 5543 5540 5538 5536 5534 5531 5527 5527 5527 5531 5533
5664 5656 5646 5638 5631 5625 5619 5613 5606 5598 5594 5589 5584 5578 5569 5562 5555 5547 5538 5533 5527 5527 5525 5520 5517 5516 5515 5513 5511 5511 5515 5519
5656 5648 5643 5636 5627 5621 5615 5609 5603 5595 5588 5583 5575 5566 5559 5553 5545 5536 5531 5522 5516 5511 5506 5502 5500 5496 5496 5496 5496 5496 5500 5503
5650 5643 5640 5632 5624 5616 5610 5603 5596 5589 5581 5573 5565 5558 5553 5548 5542 5533 5523 5513 5502 5495 5488 5481 5478 5477 5474 5475 5477 5479 5481 5486
5646 5642 5638 5633 5625 5613 5605 5597 5590 5583 5574 5564 5554 5547 5538 5531 5521 5511 5501 5492 5485 5478 5472 5466 5463 5459 5458 5457 5457 5459 5461 5466
5642 5638 5632 5623 5616 5605 5595 5588 5581 5573 5563 5554 5542 5532 5525 5514 5504 5494 5485 5477 5470 5464 5459 5453 5446 5441 5440 5439 5439 5441 5443 5447
5630 5625 5620 5615 5604 5595 5585 5577 5571 5564 5555 5543 5531 5518 5506 5497 5487 5477 5467 5457 5450 5444 5438 5432 5428 5424 5422 5422 5420 5421 5425 5429
5619 5614 5609 5604 5597 5590 5581 5573 5564 5554 5545 5532 5519 5504 5491 5479 5469 5459 5447 5439 5432 5424 5417 5413 5409 5407 5406 5405 5406 5407 5413 5417
5612 5607 5599 5594 5586 5579 5572 5566 5558 5546 5532 5519 5504 5487 5472 5462 5452 5441 5431 5423 5415 5408 5401 5397 5394 5391 5389 5389 5389 5390 5393 5396
5604 5597 5590 5582 5576 5569 5563 5553 5546 5532 5518 5500 5480 5464 5453 5442 5431 5422 5413 5406 5399 5394 5388 5382 5379 5376 5374 5371 5371 5371 5370 5373
5593 5585 5579 5572 5566 5558 5548 5538 5527 5513 5499 5476 5458 5446 5436 5425 5416 5407 5398 5391 5384 5379 5374 5369 5366 5363 5359 5357 5355 5352 5350 5350
5583 5571 5565 5559 5553 5546 5533 5522 5506 5493 5475 5456 5440 5428 5420 5409 5400 5392 5383 5376 5369 5365 5361 5357 5353 5349 5344 5339 5337 5333 5331 5332
5571 5559 5551 5543 5537 5530 5517 5504 5489 5474 5456 5439 5424 5414 5403 5393 5385 5377 5370 5363 5359 5353 5349 5344 5340 5335 5329 5323 5318 5315 5311 5308
5558 5547 5535 5523 5522 5515 5500 5486 5471 5455 5439 5425 5413 5400 5389 5381 5371 5363 5356 5351 5347 5342 5336 5329 5323 5317 5311 5305 5300 5297 5293 5291
5543 5528 5514 5507 5506 5498 5484 5467 5450 5435 5422 5410 5395 5386 5377 5367 5358 5351 5345 5339 5333 5326 5320 5315 5308 5300 5294 5288 5281 5276 5273 5273
5527 5507 5499 5498 5490 5481 5467 5449 5433 5417 5406 5393 5383 5374 5363 5354 5346 5340 5333 5326 5318 5311 5305 5298 5291 5283 5275 5267 5261 5261 5261 5262
5504 5491 5488 5484 5471 5463 5448 5432 5414 5397 5390 5380 5371 5360 5350 5341 5335 5329 5322 5313 5305 5297 5289 5280 5273 5267 5263 5259 5257 5256 5258 5261
5481 5482 5479 5465 5450 5442 5428 5408 5397 5386 5378 5369 5358 5349 5339 5331 5324 5317 5310 5301 5291 5282 5274 5265 5260 5260 5256 5255 5255 5255 5257 5261